Location: Amsterdam
(30.7274°N, 84.4357°W)
Time: 19:29:53
(UTC+00:00)

Altair - Pass Details

Date: 15 August 2024
Orbit: 1501 x 1682 km, 47.2° (Epoch: 07 September)

Event Time Altitude Azimuth Distance (km) Brightness Sun altitude
Rises 14:16:43 0° 205° (SSW) 4,920 10.0 40.0°
Reaches altitude 10° 14:20:05 10° 199° (SSW) 3,932 9.7 40.7°
Maximum altitude 14:29:28 45° 131° (SE) 2,155 9.9 42.7°
Drops below altitude 10° 14:38:40 10° 63° (ENE) 3,862 10.3 44.7°
Sets 14:41:55 0° 57° (ENE) 4,827 10.6 45.3°
